Погода в Маргилане

Узбекистан     40°28′08″N   71°43′14″E
темп.,
°C
ветер,
м/с
пор.,
м/с
влажн.,
%
обл.,
%
осадки,
мм/ч
давл.,
гПа
погр.,
м
27 февраля, сб
сб2723:00−1св11323 0.0 103222
02:00−3вюв003723 0.0 103021
05:00−3ююз013861 0.0 103121
08:00−2всв1135100 0.0 103070
11:00+2ссз1127100 0.0 1029803
14:00+4зюз0124100 0.0 10281100
17:00+4всв2223100 0.3 1032792
20:00+2ссв353396 0.0 1036124
28 февраля, вс
вс2823:000св374948 0.0 1036213
02:00−1св23570 0.0 103541
05:00−2вюв11560 0.0 103321
08:00−1св11500 0.0 103155
11:00+4св12350 0.0 1026563
14:00+8всв33240 0.0 10231010
17:00+8в22230 0.0 1023905
20:00+5всв23300 0.0 102625
1 марта, пн
пн123:00+3в22370 0.0 102724
02:00+2всв114620 0.0 102622
05:00+1в015119 0.0 102522
08:00+2св114896 0.0 102646
11:00+8св113178 0.0 1023468
14:00+12св221911 0.0 1021861
17:00+12св21175 0.0 1022847
20:00+8в22260 0.0 102622
2 марта, вт
вт223:00+7в22300 0.0 102722
02:00+5всв113731 0.0 102722
05:00+5всв124466 0.0 102623
08:00+5ссв1145100 0.0 102639
11:00+11ссв113092 0.0 1023360
14:00+14ссв1120100 0.0 1021780
17:00+14ссз1119100 0.0 1021667
20:00+11всв1224100 0.0 102322
3 марта, ср
ср323:00+10в1126100 0.0 102322
02:00+8ссв0031100 0.0 102222
05:00+8з1135100 0.0 102222
08:00+8ссз0038100 0.0 102224
11:00+12с333796 0.0 1019874
14:00+15св1129100 0.0 10171496
17:00+14з1229100 0.0 10181671
20:00+12з1135100 0.0 102022